Date,TemperatureHighF,TemperatureAvgF,TemperatureLowF,DewpointHighF,DewpointAvgF,DewpointLowF,HumidityHigh,HumidityAvg,HumidityLow,PressureMaxIn,PressureMinIn,WindSpeedMaxMPH,WindSpeedAvgMPH,GustSpeedMaxMPH,PrecipitationSumIn
2013-2-1,64.7,55.1,46.0,44.7,37.5,30.4,83,53,34,30.36,30.23,13,3,21,0.00
2013-2-2,68.3,57.8,44.8,54.1,47.2,39.8,89,69,43,30.32,30.16,8,2,12,0.00
2013-2-3,71.3,58.8,48.3,50.4,45.7,34.9,92,65,36,30.21,30.08,11,3,18,0.00
2013-2-4,67.7,56.4,43.3,52.9,45.9,40.1,91,70,42,30.16,30.05,5,1,9,0.00
2013-2-5,72.9,60.9,46.8,58.4,50.3,38.3,96,70,41,30.13,30.02,4,1,10,0.00
2013-2-6,74.5,66.8,56.7,66.9,61.4,54.4,93,83,71,30.14,30.05,6,2,10,0.00
2013-2-7,76.1,70.6,62.3,68.3,64.3,60.1,93,81,68,30.11,29.91,11,5,17,0.00
2013-2-8,80.4,69.1,63.3,65.1,62.1,53.0,96,80,39,30.09,29.88,9,3,16,0.00
2013-2-9,71.7,65.5,55.6,61.6,59.1,53.6,94,81,65,30.23,30.08,9,4,15,0.01
2013-2-10,74.6,70.0,67.1,62.6,59.3,56.6,78,69,59,30.31,30.21,11,7,18,0.00
2013-2-11,76.6,71.7,68.2,66.6,64.1,62.2,86,77,65,30.25,30.11,11,6,19,0.00
2013-2-12,84.4,72.9,63.4,69.9,65.9,61.9,97,80,48,30.14,29.96,10,4,17,0.00
2013-2-13,87.1,74.8,64.8,70.7,66.6,59.6,97,78,46,30.00,29.85,12,7,22,0.03
2013-2-14,72.1,64.6,60.8,65.7,61.5,59.0,96,90,73,30.07,29.95,10,2,18,0.92
2013-2-15,67.3,62.0,57.3,60.5,58.7,56.2,97,89,77,30.09,29.98,6,1,9,0.02
2013-2-16,69.4,60.1,48.5,58.1,46.8,31.3,95,65,33,30.11,29.90,16,5,24,0.00
2013-2-17,52.2,46.4,39.7,38.9,22.4,15.0,66,40,27,30.36,30.11,13,6,20,0.00
2013-2-18,65.3,55.2,38.0,51.8,40.5,21.8,78,58,43,30.38,30.24,7,2,14,0.00
2013-2-19,78.4,65.7,50.2,59.6,52.9,45.9,88,66,43,30.25,30.08,11,3,19,0.00
2013-2-20,71.0,64.2,57.4,63.0,58.9,53.2,95,83,71,30.16,30.06,7,2,11,0.00
2013-2-21,76.1,70.2,64.5,67.9,65.6,62.8,95,86,71,30.13,30.04,8,2,14,0.00
2013-2-22,77.5,71.8,63.3,71.7,68.8,62.6,98,91,82,30.13,30.04,11,4,19,0.00
2013-2-23,87.3,75.4,67.6,71.5,68.0,62.4,99,80,44,30.06,29.90,13,4,27,0.03
2013-2-24,83.6,71.5,67.1,70.8,68.0,66.5,98,89,58,30.01,29.91,8,3,16,0.02
2013-2-25,85.9,75.1,67.8,73.1,69.0,61.1,99,83,44,29.95,29.81,9,3,17,0.03
2013-2-26,83.8,75.7,66.1,72.3,69.3,63.4,92,82,57,29.89,29.77,16,8,29,0.00
2013-2-27,73.1,66.1,60.6,63.4,60.3,52.3,97,82,60,29.99,29.88,6,2,10,0.00
2013-2-28,74.6,62.7,53.3,52.2,48.8,39.6,87,63,37,30.03,29.89,10,4,14,0.00